Time,TemperatureF,DewpointF,PressureIn,WindDirection,WindDirectionDegrees,WindSpeedMPH,WindSpeedGustMPH,Humidity,HourlyPrecipIn,Conditions,Clouds,dailyrainin,SoftwareType,DateUTC
2013-03-13 00:00:00,27.0,17.8,30.02,WNW,285,11.6,17.4,68,0.00,,OVC075,0.00,VWS V14.00,2013-03-13 05:00:00,
2013-03-13 00:10:00,26.8,17.6,30.02,West,274,12.5,24.6,68,0.00,,OVC050,0.00,VWS V14.00,2013-03-13 05:10:00,
2013-03-13 00:20:00,26.6,17.8,30.02,WNW,293,15.2,21.9,69,0.00,,OVC050,0.00,VWS V14.00,2013-03-13 05:20:00,
2013-03-13 00:30:00,26.2,17.8,30.02,West,279,9.8,24.6,70,0.00,,OVC050,0.00,VWS V14.00,2013-03-13 05:30:00,
2013-03-13 00:40:00,26.1,18.0,30.02,West,271,15.2,21.9,71,0.00,,OVC050,0.00,VWS V14.00,2013-03-13 05:40:00,
2013-03-13 00:50:00,26.1,18.0,30.02,West,273,16.6,24.6,71,0.00,,OVC050,0.00,VWS V14.00,2013-03-13 05:50:00,
2013-03-13 01:00:00,25.9,17.8,30.02,WNW,296,12.5,21.0,71,0.00,,OVC050,0.00,VWS V14.00,2013-03-13 06:00:00,
2013-03-13 01:10:00,25.7,17.6,30.02,WNW,282,12.5,21.9,71,0.00,,OVC060,0.00,VWS V14.00,2013-03-13 06:10:00,
2013-03-13 01:20:00,25.7,17.9,30.02,SSW,192,5.4,16.6,72,0.00,,OVC060,0.00,VWS V14.00,2013-03-13 06:20:00,
2013-03-13 01:30:00,25.5,17.8,30.02,West,270,14.3,20.1,72,0.00,,OVC060,0.00,VWS V14.00,2013-03-13 06:30:00,
2013-03-13 01:40:00,25.5,17.8,30.02,West,276,12.5,24.6,72,0.00,,OVC060,0.00,VWS V14.00,2013-03-13 06:40:00,
2013-03-13 01:50:00,25.3,17.9,30.02,West,279,11.6,20.1,73,0.00,,OVC060,0.00,VWS V14.00,2013-03-13 06:50:00,
2013-03-13 02:00:00,25.3,17.9,30.02,WNW,293,12.5,17.4,73,0.00,,OVC060,0.00,VWS V14.00,2013-03-13 07:00:00,
2013-03-13 02:10:00,25.3,17.9,30.02,WNW,293,17.4,18.3,73,0.00,,OVC060,0.00,VWS V14.00,2013-03-13 07:10:00,
2013-03-13 02:20:00,25.3,17.9,30.02,WNW,288,11.6,21.0,73,0.00,,OVC060,0.00,VWS V14.00,2013-03-13 07:20:00,
2013-03-13 02:30:00,25.3,17.9,30.02,West,267,6.3,18.3,73,0.00,,OVC060,0.00,VWS V14.00,2013-03-13 07:30:00,
2013-03-13 02:40:00,25.5,18.1,30.05,West,263,16.6,18.3,73,0.00,,OVC060,0.00,VWS V14.00,2013-03-13 07:40:00,
2013-03-13 02:50:00,25.7,18.3,30.05,WNW,292,11.6,20.1,73,0.00,,OVC060,0.00,VWS V14.00,2013-03-13 07:50:00,
2013-03-13 03:00:00,26.1,18.6,30.05,WNW,292,11.6,21.9,73,0.00,,BKN060,0.00,VWS V14.00,2013-03-13 08:00:00,
2013-03-13 03:10:00,26.1,18.6,30.05,West,270,21.0,25.5,73,0.00,,BKN060,0.00,VWS V14.00,2013-03-13 08:10:00,
2013-03-13 03:20:00,26.1,18.0,30.05,West,275,16.1,25.5,71,0.00,,BKN060,0.00,VWS V14.00,2013-03-13 08:20:00,
2013-03-13 03:30:00,26.1,18.0,30.05,West,281,18.3,18.3,71,0.00,,BKN060,0.00,VWS V14.00,2013-03-13 08:30:00,
2013-03-13 03:40:00,25.7,17.6,30.05,WNW,287,15.2,21.9,71,0.00,,BKN060,0.00,VWS V14.00,2013-03-13 08:40:00,
2013-03-13 03:50:00,25.5,17.4,30.05,WNW,285,10.7,22.8,71,0.00,,OVC060,0.00,VWS V14.00,2013-03-13 08:50:00,
2013-03-13 04:00:00,25.3,17.6,30.05,West,281,16.1,17.4,72,0.00,,OVC060,0.00,VWS V14.00,2013-03-13 09:00:00,
2013-03-13 04:10:00,25.2,17.7,30.05,WNW,284,10.7,21.0,73,0.00,,OVC028,0.00,VWS V14.00,2013-03-13 09:10:00,
2013-03-13 04:20:00,25.3,18.2,30.05,West,277,11.6,20.1,74,0.00,,OVC028,0.00,VWS V14.00,2013-03-13 09:20:00,
2013-03-13 04:30:00,25.3,18.2,30.05,WNW,285,16.1,16.6,74,0.00,,OVC028,0.00,VWS V14.00,2013-03-13 09:30:00,
2013-03-13 04:40:00,25.3,18.2,30.05,West,267,12.5,17.4,74,0.00,,OVC060,0.00,VWS V14.00,2013-03-13 09:40:00,
2013-03-13 04:50:00,25.3,18.2,30.05,WNW,296,10.7,16.6,74,0.00,,BKN060,0.00,VWS V14.00,2013-03-13 09:50:00,
2013-03-13 05:00:00,25.3,18.2,30.08,WNW,282,11.6,20.1,74,0.00,,BKN120,0.00,VWS V14.00,2013-03-13 10:00:00,
2013-03-13 05:10:00,25.3,18.2,30.08,WNW,286,10.7,16.1,74,0.00,,BKN120,0.00,VWS V14.00,2013-03-13 10:10:00,
2013-03-13 05:20:00,25.3,18.2,30.08,WNW,295,16.1,17.4,74,0.00,,BKN120,0.00,VWS V14.00,2013-03-13 10:20:00,
2013-03-13 05:30:00,25.0,17.6,30.08,WNW,289,10.7,24.6,73,0.00,,BKN120,0.00,VWS V14.00,2013-03-13 10:30:00,
2013-03-13 05:40:00,24.6,17.2,30.08,WNW,297,16.1,16.1,73,0.00,,BKN045,0.00,VWS V14.00,2013-03-13 10:40:00,
2013-03-13 05:50:00,24.6,17.2,30.08,West,279,12.5,17.4,73,0.00,,SCT050,0.00,VWS V14.00,2013-03-13 10:50:00,
2013-03-13 06:00:00,24.4,17.0,30.11,WNW,285,12.5,16.1,73,0.00,,SCT050,0.00,VWS V14.00,2013-03-13 11:00:00,
2013-03-13 06:10:00,24.4,17.4,30.11,WNW,299,14.3,17.4,74,0.00,,BKN018,0.00,VWS V14.00,2013-03-13 11:10:00,
2013-03-13 06:20:00,24.3,16.9,30.11,WNW,297,9.8,17.4,73,0.00,,BKN018,0.00,VWS V14.00,2013-03-13 11:20:00,
2013-03-13 06:30:00,24.1,16.4,30.11,WNW,302,8.1,16.6,72,0.00,,SCT018,0.00,VWS V14.00,2013-03-13 11:30:00,
2013-03-13 06:40:00,24.1,16.4,30.11,NNW,328,11.6,21.0,72,0.00,,SCT018,0.00,VWS V14.00,2013-03-13 11:40:00,
2013-03-13 06:50:00,24.1,16.4,30.11,NW,321,16.1,23.7,72,0.00,,CLR,0.00,VWS V14.00,2013-03-13 11:50:00,
2013-03-13 07:00:00,24.1,16.4,30.11,NNE,12,11.6,16.1,72,0.00,,CLR,0.00,VWS V14.00,2013-03-13 12:00:00,
2013-03-13 07:10:00,23.9,16.2,30.14,NW,304,12.5,21.9,72,0.00,,CLR,0.00,VWS V14.00,2013-03-13 12:10:00,
2013-03-13 07:20:00,23.7,16.0,30.14,WNW,302,10.7,16.1,72,0.00,,CLR,0.00,VWS V14.00,2013-03-13 12:20:00,
2013-03-13 07:30:00,23.7,16.0,30.14,NNW,343,16.1,20.1,72,0.00,,CLR,0.00,VWS V14.00,2013-03-13 12:30:00,
2013-03-13 07:40:00,23.7,16.4,30.14,NW,309,8.1,21.0,73,0.00,,CLR,0.00,VWS V14.00,2013-03-13 12:40:00,
2013-03-13 07:50:00,23.7,16.7,30.14,NW,316,7.2,17.4,74,0.00,,CLR,0.00,VWS V14.00,2013-03-13 12:50:00,
2013-03-13 08:00:00,23.7,16.4,30.14,NW,307,16.6,21.0,73,0.00,,CLR,0.00,VWS V14.00,2013-03-13 13:00:00,
2013-03-13 08:10:00,23.7,15.7,30.17,NW,305,12.5,21.9,71,0.00,,CLR,0.00,VWS V14.00,2013-03-13 13:10:00,
2013-03-13 08:20:00,23.7,15.4,30.17,WNW,285,12.5,21.0,70,0.00,,CLR,0.00,VWS V14.00,2013-03-13 13:20:00,
2013-03-13 08:30:00,23.7,14.7,30.17,WNW,289,17.4,21.0,68,0.00,,CLR,0.00,VWS V14.00,2013-03-13 13:30:00,
2013-03-13 08:40:00,23.9,14.6,30.17,NW,320,8.1,22.8,67,0.00,,CLR,0.00,VWS V14.00,2013-03-13 13:40:00,
2013-03-13 08:50:00,23.5,13.9,30.17,WNW,282,21.0,21.9,66,0.00,,CLR,0.00,VWS V14.00,2013-03-13 13:50:00,
2013-03-13 09:00:00,24.1,14.7,30.17,WNW,284,16.6,21.0,67,0.00,,CLR,0.00,VWS V14.00,2013-03-13 14:00:00,
2013-03-13 09:10:00,24.1,14.7,30.20,WNW,288,16.1,21.9,67,0.00,,SCT020,0.00,VWS V14.00,2013-03-13 14:10:00,
2013-03-13 09:20:00,24.4,15.1,30.20,WNW,302,16.6,18.3,67,0.00,,SCT020,0.00,VWS V14.00,2013-03-13 14:20:00,
2013-03-13 09:30:00,24.4,14.7,30.20,NW,317,16.6,21.0,66,0.00,,SCT020,0.00,VWS V14.00,2013-03-13 14:30:00,
2013-03-13 09:40:00,24.8,15.1,30.20,WNW,286,12.5,21.9,66,0.00,,SCT020,0.00,VWS V14.00,2013-03-13 14:40:00,
2013-03-13 09:50:00,24.6,14.2,30.20,WNW,303,20.1,25.5,64,0.00,,SCT021,0.00,VWS V14.00,2013-03-13 14:50:00,
2013-03-13 10:00:00,24.8,14.4,30.20,NW,326,15.2,21.9,64,0.00,,SCT021,0.00,VWS V14.00,2013-03-13 15:00:00,
2013-03-13 10:10:00,25.0,14.2,30.23,WNW,287,20.1,24.6,63,0.00,,SCT021,0.00,VWS V14.00,2013-03-13 15:10:00,
2013-03-13 10:20:00,25.2,14.4,30.23,WNW,287,21.0,21.9,63,0.00,,SCT021,0.00,VWS V14.00,2013-03-13 15:20:00,
2013-03-13 10:30:00,25.5,14.7,30.23,West,260,15.2,21.9,63,0.00,,SCT021,0.00,VWS V14.00,2013-03-13 15:30:00,
2013-03-13 10:40:00,25.5,14.3,30.23,NW,313,16.6,27.3,62,0.00,,SCT021,0.00,VWS V14.00,2013-03-13 15:40:00,
2013-03-13 10:50:00,26.1,14.8,30.23,NW,306,12.5,23.7,62,0.00,,SCT024,0.00,VWS V14.00,2013-03-13 15:50:00,
2013-03-13 11:00:00,26.6,15.0,30.23,NW,314,20.1,22.8,61,0.00,,SCT024,0.00,VWS V14.00,2013-03-13 16:00:00,
2013-03-13 11:10:00,27.1,15.1,30.23,WNW,302,10.7,22.8,60,0.00,,SCT026,0.00,VWS V14.00,2013-03-13 16:10:00,
2013-03-13 11:20:00,26.6,13.8,30.23,WNW,289,17.4,22.8,58,0.00,,SCT026,0.00,VWS V14.00,2013-03-13 16:20:00,
2013-03-13 11:30:00,27.0,13.8,30.23,NW,305,21.0,26.4,57,0.00,,SCT026,0.00,VWS V14.00,2013-03-13 16:30:00,
2013-03-13 11:40:00,27.5,14.3,30.23,NW,306,21.0,24.6,57,0.00,,SCT026,0.00,VWS V14.00,2013-03-13 16:40:00,
2013-03-13 11:50:00,27.5,13.9,30.23,WNW,297,16.6,25.5,56,0.00,,SCT028,0.00,VWS V14.00,2013-03-13 16:50:00,
2013-03-13 12:00:00,27.7,14.0,30.26,NW,319,16.6,20.1,56,0.00,,CLR,0.00,VWS V14.00,2013-03-13 17:00:00,
2013-03-13 12:10:00,28.0,14.4,30.26,NW,324,12.5,21.0,56,0.00,,CLR,0.00,VWS V14.00,2013-03-13 17:10:00,
2013-03-13 12:20:00,28.0,14.0,30.26,NW,322,13.4,34.0,55,0.00,,CLR,0.00,VWS V14.00,2013-03-13 17:20:00,
2013-03-13 12:30:00,28.4,14.3,30.26,WNW,286,12.5,26.4,55,0.00,,CLR,0.00,VWS V14.00,2013-03-13 17:30:00,
2013-03-13 12:40:00,28.4,14.3,30.26,WNW,301,16.1,17.4,55,0.00,,CLR,0.00,VWS V14.00,2013-03-13 17:40:00,
2013-03-13 12:50:00,28.4,13.9,30.26,NW,323,18.3,25.5,54,0.00,,CLR,0.00,VWS V14.00,2013-03-13 17:50:00,
2013-03-13 13:00:00,28.8,13.8,30.26,NNW,342,16.6,30.9,53,0.00,,CLR,0.00,VWS V14.00,2013-03-13 18:00:00,
2013-03-13 13:10:00,29.1,14.1,30.26,NW,311,14.3,22.8,53,0.00,,CLR,0.00,VWS V14.00,2013-03-13 18:10:00,
2013-03-13 13:20:00,29.1,14.1,30.26,NW,316,15.2,21.0,53,0.00,,CLR,0.00,VWS V14.00,2013-03-13 18:20:00,
2013-03-13 13:30:00,29.8,14.8,30.26,WNW,297,10.7,27.3,53,0.00,,CLR,0.00,VWS V14.00,2013-03-13 18:30:00,
2013-03-13 13:40:00,30.2,15.6,30.26,NW,307,12.5,21.0,54,0.00,,CLR,0.00,VWS V14.00,2013-03-13 18:40:00,
2013-03-13 13:50:00,30.2,14.7,30.26,WNW,287,16.6,22.8,52,0.00,,CLR,0.00,VWS V14.00,2013-03-13 18:50:00,
2013-03-13 14:00:00,30.0,14.1,30.26,WNW,297,10.7,26.4,51,0.00,,CLR,0.00,VWS V14.00,2013-03-13 19:00:00,
2013-03-13 14:10:00,30.2,13.8,30.26,WNW,302,16.6,24.6,50,0.00,,CLR,0.00,VWS V14.00,2013-03-13 19:10:00,
2013-03-13 14:20:00,31.1,14.6,30.26,West,270,15.2,18.3,50,0.00,,CLR,0.00,VWS V14.00,2013-03-13 19:20:00,
2013-03-13 14:30:00,30.4,13.5,30.26,WNW,293,12.5,19.2,49,0.00,,CLR,0.00,VWS V14.00,2013-03-13 19:30:00,
2013-03-13 14:40:00,30.9,14.0,30.26,NNW,334,11.6,20.1,49,0.00,,CLR,0.00,VWS V14.00,2013-03-13 19:40:00,
2013-03-13 14:50:00,30.7,13.4,30.26,WNW,291,11.6,21.9,48,0.00,,CLR,0.00,VWS V14.00,2013-03-13 19:50:00,
2013-03-13 15:00:00,31.1,14.2,30.26,WNW,292,12.5,24.6,49,0.00,,CLR,0.00,VWS V14.00,2013-03-13 20:00:00,
2013-03-13 15:10:00,31.5,14.5,30.29,West,277,14.3,16.6,49,0.00,,CLR,0.00,VWS V14.00,2013-03-13 20:10:00,
2013-03-13 15:20:00,31.3,14.4,30.29,West,263,11.6,26.4,49,0.00,,CLR,0.00,VWS V14.00,2013-03-13 20:20:00,
2013-03-13 15:30:00,31.1,14.2,30.26,WNW,298,12.5,17.4,49,0.00,,CLR,0.00,VWS V14.00,2013-03-13 20:30:00,
2013-03-13 15:40:00,31.3,14.4,30.26,West,267,19.2,19.2,49,0.00,,CLR,0.00,VWS V14.00,2013-03-13 20:40:00,
2013-03-13 15:50:00,31.5,14.5,30.26,NW,314,17.4,21.9,49,0.00,,CLR,0.00,VWS V14.00,2013-03-13 20:50:00,
2013-03-13 16:00:00,32.0,15.0,30.29,WSW,255,12.5,17.4,49,0.00,,CLR,0.00,VWS V14.00,2013-03-13 21:00:00,
2013-03-13 16:10:00,31.8,14.9,30.29,West,280,10.7,21.9,49,0.00,,CLR,0.00,VWS V14.00,2013-03-13 21:10:00,
2013-03-13 16:20:00,31.1,13.7,30.29,WNW,292,10.7,19.2,48,0.00,,CLR,0.00,VWS V14.00,2013-03-13 21:20:00,
2013-03-13 16:30:00,31.6,13.7,30.29,WNW,290,10.7,19.2,47,0.00,,CLR,0.00,VWS V14.00,2013-03-13 21:30:00,
2013-03-13 16:40:00,31.5,13.1,30.29,WNW,292,10.7,17.4,46,0.00,,CLR,0.00,VWS V14.00,2013-03-13 21:40:00,
2013-03-13 16:50:00,31.8,13.4,30.29,WNW,298,10.7,17.4,46,0.00,,CLR,0.00,VWS V14.00,2013-03-13 21:50:00,
2013-03-13 17:00:00,31.3,12.4,30.29,WNW,287,16.1,17.4,45,0.00,,CLR,0.00,VWS V14.00,2013-03-13 22:00:00,
2013-03-13 17:10:00,31.5,12.1,30.29,WNW,290,12.5,20.1,44,0.00,,CLR,0.00,VWS V14.00,2013-03-13 22:10:00,
2013-03-13 17:20:00,31.6,12.8,30.29,WNW,286,10.7,16.1,45,0.00,,CLR,0.00,VWS V14.00,2013-03-13 22:20:00,
2013-03-13 17:30:00,31.8,12.4,30.29,NNW,337,10.7,21.9,44,0.00,,CLR,0.00,VWS V14.00,2013-03-13 22:30:00,
2013-03-13 17:40:00,31.5,12.1,30.29,WNW,295,8.1,21.9,44,0.00,,CLR,0.00,VWS V14.00,2013-03-13 22:40:00,
2013-03-13 17:50:00,31.5,12.1,30.29,WNW,284,6.3,16.1,44,0.00,,CLR,0.00,VWS V14.00,2013-03-13 22:50:00,
2013-03-13 18:00:00,31.3,11.4,30.29,West,280,8.1,16.1,43,0.00,,CLR,0.00,VWS V14.00,2013-03-13 23:00:00,
2013-03-13 18:10:00,31.3,11.9,30.29,WNW,298,9.8,16.1,44,0.00,,CLR,0.00,VWS V14.00,2013-03-13 23:10:00,
2013-03-13 18:20:00,31.1,11.8,30.29,WNW,301,9.8,15.2,44,0.00,,CLR,0.00,VWS V14.00,2013-03-13 23:20:00,
2013-03-13 18:30:00,30.9,11.6,30.29,West,276,7.2,12.5,44,0.00,,CLR,0.00,VWS V14.00,2013-03-13 23:30:00,
2013-03-13 18:40:00,30.7,11.4,30.29,WNW,282,7.2,11.6,44,0.00,,CLR,0.00,VWS V14.00,2013-03-13 23:40:00,
2013-03-13 18:50:00,30.6,11.8,30.29,WNW,286,5.4,10.7,45,0.00,,CLR,0.00,VWS V14.00,2013-03-13 23:50:00,
2013-03-13 19:00:00,30.4,12.1,30.29,WNW,299,6.3,9.8,46,0.00,,CLR,0.00,VWS V14.00,2013-03-14 00:00:00,
2013-03-13 19:10:00,30.2,12.4,30.29,WNW,285,5.4,8.1,47,0.00,,CLR,0.00,VWS V14.00,2013-03-14 00:10:00,
2013-03-13 19:20:00,30.0,12.7,30.29,WNW,300,5.4,10.7,48,0.00,,CLR,0.00,VWS V14.00,2013-03-14 00:20:00,
2013-03-13 19:30:00,29.8,12.6,30.29,WNW,295,6.3,8.1,48,0.00,,CLR,0.00,VWS V14.00,2013-03-14 00:30:00,
2013-03-13 19:40:00,29.7,12.4,30.29,West,280,5.4,7.2,48,0.00,,CLR,0.00,VWS V14.00,2013-03-14 00:40:00,
2013-03-13 19:50:00,29.5,12.7,30.29,West,275,0.0,5.4,49,0.00,,CLR,0.00,VWS V14.00,2013-03-14 00:50:00,
2013-03-13 20:00:00,29.1,13.3,30.29,West,275,0.0,7.2,51,0.00,,CLR,0.00,VWS V14.00,2013-03-14 01:00:00,
2013-03-13 20:10:00,28.9,13.5,30.29,West,267,0.0,7.2,52,0.00,,CLR,0.00,VWS V14.00,2013-03-14 01:10:00,
2013-03-13 20:20:00,28.6,13.6,30.29,West,270,0.0,5.4,53,0.00,,CLR,0.00,VWS V14.00,2013-03-14 01:20:00,
2013-03-13 20:30:00,28.6,14.1,30.29,West,267,0.0,0.0,54,0.00,,CLR,0.00,VWS V14.00,2013-03-14 01:30:00,
2013-03-13 20:40:00,28.2,14.6,30.29,West,272,0.0,0.0,56,0.00,,CLR,0.00,VWS V14.00,2013-03-14 01:40:00,
2013-03-13 20:50:00,27.9,14.6,30.29,West,272,0.0,0.0,57,0.00,,CLR,0.00,VWS V14.00,2013-03-14 01:50:00,
2013-03-13 21:00:00,27.3,14.9,30.29,West,272,0.0,0.0,59,0.00,,CLR,0.00,VWS V14.00,2013-03-14 02:00:00,
2013-03-13 21:10:00,27.3,15.7,30.29,West,272,0.0,0.0,61,0.00,,CLR,0.00,VWS V14.00,2013-03-14 02:10:00,
2013-03-13 21:20:00,27.0,15.7,30.29,West,272,0.0,0.0,62,0.00,,CLR,0.00,VWS V14.00,2013-03-14 02:20:00,
2013-03-13 21:30:00,26.6,16.1,30.29,West,272,0.0,0.0,64,0.00,,CLR,0.00,VWS V14.00,2013-03-14 02:30:00,
2013-03-13 21:40:00,26.6,16.8,30.29,West,267,0.0,0.0,66,0.00,,CLR,0.00,VWS V14.00,2013-03-14 02:40:00,
2013-03-13 21:50:00,26.8,17.3,30.29,West,267,0.0,0.0,67,0.00,,CLR,0.00,VWS V14.00,2013-03-14 02:50:00,
2013-03-13 22:00:00,26.2,17.1,30.29,West,263,0.0,0.0,68,0.00,,CLR,0.00,VWS V14.00,2013-03-14 03:00:00,
2013-03-13 22:10:00,26.4,17.6,30.29,West,263,4.5,6.3,69,0.00,,CLR,0.00,VWS V14.00,2013-03-14 03:10:00,
2013-03-13 22:20:00,26.6,18.1,30.29,West,270,5.4,5.4,70,0.00,,CLR,0.00,VWS V14.00,2013-03-14 03:20:00,
2013-03-13 22:30:00,26.8,18.0,30.29,West,263,0.0,6.3,69,0.00,,CLR,0.00,VWS V14.00,2013-03-14 03:30:00,
2013-03-13 22:40:00,27.0,18.2,30.29,West,272,4.5,6.3,69,0.00,,CLR,0.00,VWS V14.00,2013-03-14 03:40:00,
2013-03-13 22:50:00,27.0,17.8,30.29,West,263,5.4,7.2,68,0.00,,CLR,0.00,VWS V14.00,2013-03-14 03:50:00,
2013-03-13 23:00:00,27.1,18.3,30.29,West,279,0.0,7.2,69,0.00,,CLR,0.00,VWS V14.00,2013-03-14 04:00:00,
2013-03-13 23:10:00,27.1,18.3,30.29,West,270,5.4,7.2,69,0.00,,CLR,0.00,VWS V14.00,2013-03-14 04:10:00,
2013-03-13 23:20:00,27.0,18.5,30.29,West,281,6.3,8.1,70,0.00,,CLR,0.00,VWS V14.00,2013-03-14 04:20:00,
2013-03-13 23:30:00,27.0,18.5,30.29,West,279,6.3,8.1,70,0.00,,CLR,0.00,VWS V14.00,2013-03-14 04:30:00,
2013-03-13 23:40:00,27.1,18.7,30.29,West,281,8.1,10.7,70,0.00,,CLR,0.00,VWS V14.00,2013-03-14 04:40:00,
2013-03-13 23:50:00,27.1,18.7,30.29,WSW,242,7.2,9.8,70,0.00,,CLR,0.00,VWS V14.00,2013-03-14 04:50:00,